Starlink 6379

operational
NORAD ID: 57343 Int'l Des: 2023-099 Owner: SPXS Country: US Constellation: starlink
LEOCIRCULAR

About Starlink 6379

Description loading...

Live Position

Loading 3D Globe...

Upcoming Passes

Altitude History

Altitude vs Time

uPlot chart will show altitude changes over time

Two-Line Element Set

1 57343U 23099R 26019.67075849 -.00003481 00000-0 -24267-3 0 9991
2 57343 43.0027 155.2602 0001338 267.0559 93.0131 15.02549803138747
Epoch: Jan 19, 2026 • Age: 27 hours

Current Status

Altitude 562.4 km
Velocity 7.58 km/s
Sub-Earth Point -17.99°S, 82.18°E
Launch Date Jul 16, 2023
Age 2.5 years
Type internet

Technical Details

Classification Payload
Mass 305.00 kg
Dry Mass 290.00 kg
Total Mass 305.00 kg
Length 0.20 m
Diameter 2.80 m
Span 9.00 m
Shape Box + pan
Manufacturer SPXS
Bus Type Starlink
Phase Status In Orbit
Owner/State SPXS/US

Large Constellations

Loading constellations...